Location: Newark
(46.9000°N, 28.3500°E)
Time: 11:03:11
(UTC+00:00)

Vanguard 1 Rocket - Pass Details

Date: 30 August 2019
Orbit: 651 x 4225 km, 34.3° (Epoch: 20 September)

Event Time Altitude Azimuth Distance (km) Brightness Sun altitude
Rises 03:06:55 0° 249° (WSW) 3,086 - -3.5°
Exits shadow 03:08:00 - 241° (WSW) 2,825 9.3 -3.3°
Reaches altitude 10° 03:10:51 10° 214° (SW) 2,455 9.2 -2.8°
Maximum altitude 03:12:40 12° 195° (SSW) 2,523 9.4 -2.5°
Drops below altitude 10° 03:14:43 10° 176° (S) 2,854 9.8 -2.2°
Sets 03:20:37 0° 147° (SSE) 4,559 11.2 -1.2°
